| time (UTC) | temp F | wind direction | speed MPH | gust MPH | rain 1hr in | rain 24hr in | rain mn in | humidity % | barometer mb |
| 20260504214928 | 82 | 146 | 0.0 | 0.0 | 0.00 | 0.00 | 0.00 | 42 | 1007.5 |
| 20260504213954 | 81 | 146 | 0.0 | 0.0 | 0.00 | 0.00 | 0.00 | 39 | 1007.7 |
| 20260504212936 | 80 | 146 | 0.0 | 9.0 | 0.00 | 0.00 | 0.00 | 36 | 1007.7 |
| 20260504211946 | 80 | 146 | 0.0 | 5.0 | 0.00 | 0.00 | 0.00 | 42 | 1007.8 |
| 20260504210929 | 80 | 146 | 0.0 | 0.0 | 0.00 | 0.00 | 0.00 | 42 | 1007.9 |
| 20260504205932 | 80 | 146 | 1.0 | 7.0 | 0.00 | 0.00 | 0.00 | 45 | 1007.9 |
| 20260504204953 | 79 | 146 | 3.0 | 8.0 | 0.00 | 0.00 | 0.00 | 44 | 1007.9 |
| 20260504203934 | 79 | 146 | 0.0 | 8.0 | 0.00 | 0.00 | 0.00 | 43 | 1008.0 |
| 20260504202942 | 80 | 146 | 3.0 | 7.0 | 0.00 | 0.00 | 0.00 | 45 | 1008.0 |
| 20260504201925 | 79 | 146 | 2.0 | 7.0 | 0.00 | 0.00 | 0.00 | 42 | 1008.0 |
| 20260504200931 | 79 | 146 | 3.0 | 7.0 | 0.00 | 0.00 | 0.00 | 44 | 1008.1 |
| 20260504195954 | 79 | 146 | 4.0 | 7.0 | 0.00 | 0.00 | 0.00 | 42 | 1008.0 |
| 20260504194932 | 78 | 146 | 0.0 | 0.0 | 0.00 | 0.00 | 0.00 | 44 | 1008.1 |
| 20260504193955 | 77 | 146 | 1.0 | 6.0 | 0.00 | 0.00 | 0.00 | 44 | 1008.2 |
| 20260504192938 | 77 | 146 | 0.0 | 0.0 | 0.00 | 0.00 | 0.00 | 46 | 1008.2 |
| 20260504191938 | 76 | 146 | 0.0 | 0.0 | 0.00 | 0.00 | 0.00 | 47 | 1008.3 |
| 20260504190939 | 76 | 146 | 0.0 | 0.0 | 0.00 | 0.00 | 0.00 | 46 | 1008.3 |
| 20260504190003 | 75 | 146 | 0.0 | 8.0 | 0.00 | 0.00 | 0.00 | 47 | 1008.4 |
| 20260504184938 | 75 | 146 | 0.0 | 0.0 | 0.00 | 0.00 | 0.00 | 49 | 1008.5 |
| 20260504183940 | 75 | 146 | 0.0 | 0.0 | 0.00 | 0.00 | 0.00 | 49 | 1008.6 |
| 20260504182942 | 74 | 146 | 0.0 | 0.0 | 0.00 | 0.00 | 0.00 | 50 | 1008.7 |
| 20260504181949 | 74 | 146 | 0.0 | 3.0 | 0.00 | 0.00 | 0.00 | 46 | 1008.7 |
| 20260504180930 | 74 | 146 | 3.0 | 7.0 | 0.00 | 0.00 | 0.00 | 46 | 1008.8 |
| 20260504175935 | 73 | 146 | 0.0 | 8.0 | 0.00 | 0.00 | 0.00 | 48 | 1008.7 |
| 20260504174937 | 73 | 146 | 4.0 | 8.0 | 0.00 | 0.00 | 0.00 | 50 | 1008.7 |
| 20260504173927 | 73 | 146 | 2.0 | 8.0 | 0.00 | 0.00 | 0.00 | 49 | 1008.6 |
| 20260504172930 | 73 | 146 | 1.0 | 7.0 | 0.00 | 0.00 | 0.00 | 48 | 1008.5 |
| 20260504171953 | 73 | 146 | 1.0 | 9.0 | 0.00 | 0.00 | 0.00 | 46 | 1008.6 |
| 20260504170935 | 73 | 146 | 4.0 | 9.0 | 0.00 | 0.00 | 0.00 | 50 | 1008.6 |
| 20260504150931 | 63 | 146 | 0.0 | 0.0 | 0.00 | 0.00 | 0.00 | 54 | 1008.5 |
| 20260504140937 | 60 | 146 | 2.0 | 8.0 | 0.00 | 0.00 | 0.00 | 55 | 1008.3 |
| 20260504081936 | 61 | 96 | 0.0 | 0.0 | 0.00 | 0.00 | 0.00 | 53 | 1008.2 |
| 20260504080939 | 61 | 96 | 0.0 | 0.0 | 0.00 | 0.00 | 0.00 | 53 | 1008.3 |
| 20260504045935 | 62 | 78 | 1.0 | 5.0 | 0.00 | 0.00 | 0.00 | 57 | 1008.7 |
| 20260504044940 | 61 | 78 | 0.0 | 4.0 | 0.00 | 0.00 | 0.00 | 58 | 1008.7 |
| 20260504043941 | 61 | 78 | 0.0 | 5.0 | 0.00 | 0.00 | 0.00 | 58 | 1008.7 |
| 20260504042927 | 61 | 78 | 0.0 | 0.0 | 0.00 | 0.00 | 0.00 | 58 | 1008.8 |
| 20260504041934 | 62 | 78 | 0.0 | 1.0 | 0.00 | 0.00 | 0.00 | 59 | 1008.7 |
| 20260504040937 | 62 | 78 | 0.0 | 1.0 | 0.00 | 0.00 | 0.00 | 57 | 1008.7 |
| 20260504035939 | 63 | 78 | 0.0 | 0.0 | 0.00 | 0.00 | 0.00 | 58 | 1008.6 |
| 20260504034938 | 64 | 78 | 0.0 | 0.0 | 0.00 | 0.00 | 0.00 | 57 | 1008.5 |
| 20260504033940 | 65 | 78 | 0.0 | 0.0 | 0.00 | 0.00 | 0.00 | 55 | 1008.4 |
| 20260504032940 | 67 | 78 | 0.0 | 0.0 | 0.00 | 0.00 | 0.00 | 53 | 1008.4 |
| 20260504032001 | 68 | 78 | 0.0 | 0.0 | 0.00 | 0.00 | 0.00 | 51 | 1008.3 |
| 20260504030937 | 72 | 78 | 0.0 | 0.0 | 0.00 | 0.00 | 0.00 | 49 | 1008.2 |
| 20260504025939 | 74 | 78 | 0.0 | 0.0 | 0.00 | 0.00 | 0.00 | 49 | 1008.1 |
| 20260504025009 | 76 | 78 | 0.0 | 0.0 | 0.00 | 0.00 | 0.00 | 45 | 1008.1 |
| 20260504022942 | 81 | 78 | 0.0 | 0.0 | 0.00 | 0.00 | 0.00 | 44 | 1008.2 |
| 20260504021946 | 83 | 78 | 0.0 | 0.0 | 0.00 | 0.00 | 0.00 | 41 | 1008.2 |
| 20260504020928 | 85 | 78 | 0.0 | 0.0 | 0.00 | 0.00 | 0.00 | 42 | 1008.2 |
| 20260504015935 | 85 | 78 | 0.0 | 0.0 | 0.00 | 0.00 | 0.00 | 38 | 1008.3 |
| 20260504014937 | 85 | 78 | 0.0 | 0.0 | 0.00 | 0.00 | 0.00 | 41 | 1008.4 |
| 20260504014002 | 86 | 78 | 0.0 | 0.0 | 0.00 | 0.00 | 0.00 | 39 | 1008.5 |
| 20260504012946 | 86 | 78 | 0.0 | 0.0 | 0.00 | 0.00 | 0.00 | 35 | 1008.6 |
| 20260504011952 | 85 | 78 | 0.0 | 0.0 | 0.00 | 0.00 | 0.00 | 37 | 1008.7 |
| 20260504010931 | 85 | 78 | 0.0 | 0.0 | 0.00 | 0.00 | 0.00 | 37 | 1008.8 |
| 20260504005931 | 84 | 78 | 0.0 | 0.0 | 0.00 | 0.00 | 0.00 | 34 | 1008.9 |
| 20260504004950 | 84 | 78 | 0.0 | 0.0 | 0.00 | 0.00 | 0.00 | 34 | 1009.0 |
| 20260504003947 | 84 | 78 | 0.0 | 0.0 | 0.00 | 0.00 | 0.00 | 32 | 1009.2 |
| 20260504002931 | 84 | 78 | 0.0 | 4.0 | 0.00 | 0.00 | 0.00 | 35 | 1009.2 |
| 20260504001930 | 83 | 78 | 0.0 | 0.0 | 0.00 | 0.00 | 0.00 | 35 | 1009.3 |
| 20260504000934 | 83 | 78 | 0.0 | 5.0 | 0.00 | 0.00 | 0.00 | 35 | 1009.3 |
| 20260503235936 | 84 | 78 | 0.0 | 9.0 | 0.00 | 0.00 | 0.00 | 37 | 1009.5 |
| 20260503234926 | 85 | 78 | 0.0 | 3.0 | 0.00 | 0.00 | 0.00 | 39 | 1009.5 |
| 20260503233952 | 84 | 78 | 0.0 | 0.0 | 0.00 | 0.00 | 0.00 | 37 | 1009.6 |
| 20260503232934 | 84 | 78 | 0.0 | 7.0 | 0.00 | 0.00 | 0.00 | 38 | 1009.7 |
| 20260503231939 | 84 | 78 | 0.0 | 0.0 | 0.00 | 0.00 | 0.00 | 40 | 1009.8 |
| 20260503230946 | 84 | 78 | 0.0 | 9.0 | 0.00 | 0.00 | 0.00 | 38 | 1009.9 |
| 20260503225928 | 84 | 78 | 0.0 | 5.0 | 0.00 | 0.00 | 0.00 | 37 | 1010.0 |
| 20260503224933 | 84 | 78 | 0.0 | 5.0 | 0.00 | 0.00 | 0.00 | 37 | 1010.2 |
| 20260503223936 | 83 | 78 | 0.0 | 0.0 | 0.00 | 0.00 | 0.00 | 40 | 1010.3 |
| 20260503222943 | 82 | 78 | 0.0 | 0.0 | 0.00 | 0.00 | 0.00 | 38 | 1010.5 |
| 20260503221925 | 81 | 78 | 1.0 | 5.0 | 0.00 | 0.00 | 0.00 | 41 | 1010.6 |
| 20260503220931 | 82 | 78 | 0.0 | 5.0 | 0.00 | 0.00 | 0.00 | 47 | 1010.7 |
| 20260503215952 | 82 | 78 | 2.0 | 8.0 | 0.00 | 0.00 | 0.00 | 41 | 1011.0 |